User: anonymous   Login
Location: Unspecified
(0.0000°N, 0.0000°E)
Time: 06:49:32
(UTC+00:00)
Language:

METEOR-M - Orbit

View from above orbital plane
View from above orbital plane
View from above satellite
View from above satellite

Ground track
Ground track

The orbit data is extracted from the following two-line orbital elements,

1 35865U 09049A   16270.68440701  .00000018  00000-0  27035-4 0  9995
2 35865  98.4486 297.8131 0002409 168.3504 191.7730 14.22080298364648
Epoch (UTC): 26 September 2016 16:25:32
Eccentricity: 0.0002409
inclination: 98.4486°
perigee height: 816 km
apogee height: 820 km
right ascension of ascending node: 297.8131°
argument of perigee: 168.3504°
revolutions per day: 14.22080298
mean anomaly at epoch: 191.7730°
orbit number at epoch: 36464

The dashed part of the orbit path shows where the satellite is in the earth's shadow,  

DLR